Find Local Weather

World > North America > United States > Minnesota

Rochester, Minnesota Regional Weather

Lat: 44.01N, Lon: 92.48W
Wx Zone: MNZ087
Warning FLW WEATHER ALERT - (More Info. Click Here) Warning
Feedback
Expires:201901170800;;478272
ASUS43 KMPX 170710
RWRMN 
WEATHER ROUNDUP FOR MINNESOTA
NATIONAL WEATHER SERVICE TWIN CITIES/CHANHASSEN MN
100 AM CST THU JAN 17 2019


NOTE: "FAIR" INDICATES FEW OR NO CLOUDS BELOW 12,000 FEET WITH NO
SIGNIFICANT WEATHER AND/OR OBSTRUCTIONS TO VISIBILITY. N/A MEANS
CURRENT SKY AND/OR WEATHER CONDITIONS ARE NOT AVAILABLE.


MNZ078>079-086>088-094>096-170800-
   Southeast Minnesota   
  
CITY           SKY/WX    TMP DP  RH WIND       PRES   REMARKS
ROCHESTER      CLOUDY    22  14  71 SE7       30.13F WCI  13          
RED WING       CLOUDY    19   7  58 E3        30.17F                  
STANTON        CLOUDY    21  13  73 CALM      30.15F                  
DODGE CENTER   CLOUDY    21  16  79 CALM      30.13F                  
WINONA         MOCLDY    21  12  68 SE5       30.20F WCI  15          
AUSTIN         CLOUDY    27  16  63 SE3       30.13F                  
PRESTON        MOCLDY    21  14  73 CALM      30.14F                  
$$
ABBREVIATIONS USED IN REMARKS
   TC - TEMPERATURES IN CELSIUS
  WCI - WIND CHILL INDEX
   HX - HEAT INDEX
  VSB - VISIBILITY 
$$
  

SKY/WX - Weather  TMP - Temperature  DP - Dew Point  RH - Relative Humidity
WIND - Wind Direction/Speed PRES - Barometric Pressure